SES-8

Last updated on Thu Nov 21 2024 00:02:42 GMT+0000 (Coordinated Universal Time)

1 39460U 13071A 24325.54781316 -.00000268 00000+0 00000+0 0 9990 2 39460 0.0193 278.7329 0000972 288.0943 145.4414 1.00271983 38675
UTC large
Height (km)
Speed (km/s)
/
Latitude / Longitude
Inclination (degrees)
Orbital Period (minutes)
Azimuth
Elevation
Range (km)
Doppler Factor

Next 0 passes for location: London (51.5072 / 0.1276)

Sorry there are no passes over London.